| time (UTC) | temp F | wind direction | speed MPH | gust MPH | rain 1hr in | rain 24hr in | rain mn in | humidity % | barometer mb |
| 20260502202930 | 66 | 242 | 8.0 | 11.0 | 0.00 | 0.00 | 0.00 | 34 | 1012.5 |
| 20260502202427 | 66 | 209 | 6.0 | 10.0 | 0.00 | 0.00 | 0.00 | 35 | 1012.6 |
| 20260502201925 | 66 | 295 | 6.0 | 11.0 | 0.00 | 0.00 | 0.00 | 34 | 1012.5 |
| 20260502201420 | 66 | 223 | 6.0 | 9.0 | 0.00 | 0.00 | 0.00 | 33 | 1012.6 |
| 20260502200918 | 67 | 269 | 5.0 | 15.0 | 0.00 | 0.00 | 0.00 | 34 | 1012.7 |
| 20260502200413 | 66 | 241 | 3.0 | 10.0 | 0.00 | 0.00 | 0.00 | 36 | 1012.7 |
| 20260502195911 | 66 | 252 | 4.0 | 10.0 | 0.00 | 0.00 | 0.00 | 35 | 1012.9 |
| 20260502195408 | 67 | 270 | 7.0 | 9.0 | 0.00 | 0.00 | 0.00 | 32 | 1012.8 |
| 20260502194904 | 67 | 271 | 4.0 | 11.0 | 0.00 | 0.00 | 0.00 | 38 | 1012.9 |
| 20260502194401 | 67 | 244 | 3.0 | 11.0 | 0.00 | 0.00 | 0.00 | 34 | 1012.9 |
| 20260502193857 | 67 | 255 | 5.0 | 14.0 | 0.00 | 0.00 | 0.00 | 34 | 1013.1 |
| 20260502193354 | 67 | 219 | 4.0 | 8.0 | 0.00 | 0.00 | 0.00 | 32 | 1013.2 |
| 20260502192849 | 67 | 268 | 10.0 | 14.0 | 0.00 | 0.00 | 0.00 | 32 | 1013.4 |
| 20260502192342 | 66 | 289 | 9.0 | 11.0 | 0.00 | 0.00 | 0.00 | 34 | 1013.2 |
| 20260502191839 | 67 | 234 | 4.0 | 10.0 | 0.00 | 0.00 | 0.00 | 36 | 1013.4 |
| 20260502191337 | 67 | 249 | 7.0 | 13.0 | 0.00 | 0.00 | 0.00 | 33 | 1013.3 |
| 20260502190834 | 67 | 235 | 5.0 | 7.0 | 0.00 | 0.00 | 0.00 | 33 | 1013.8 |
| 20260502190331 | 66 | 245 | 6.0 | 13.0 | 0.00 | 0.00 | 0.00 | 36 | 1013.7 |
| 20260502185827 | 66 | 168 | 5.0 | 7.0 | 0.00 | 0.00 | 0.00 | 35 | 1013.6 |
| 20260502185323 | 67 | 327 | 6.0 | 11.0 | 0.00 | 0.00 | 0.00 | 36 | 1013.7 |
| 20260502184820 | 67 | 215 | 4.0 | 10.0 | 0.00 | 0.00 | 0.00 | 35 | 1013.7 |
| 20260502184315 | 66 | 260 | 3.0 | 13.0 | 0.00 | 0.00 | 0.00 | 35 | 1013.9 |
| 20260502183812 | 65 | 274 | 4.0 | 8.0 | 0.00 | 0.00 | 0.00 | 41 | 1014.1 |
| 20260502183308 | 65 | 233 | 6.0 | 11.0 | 0.00 | 0.00 | 0.00 | 37 | 1014.1 |
| 20260502182803 | 65 | 239 | 6.0 | 8.0 | 0.00 | 0.00 | 0.00 | 38 | 1014.2 |
| 20260502182258 | 64 | 241 | 6.0 | 11.0 | 0.00 | 0.00 | 0.00 | 39 | 1014.2 |
| 20260502181755 | 64 | 251 | 10.0 | 14.0 | 0.00 | 0.00 | 0.00 | 39 | 1014.4 |
| 20260502181255 | 64 | 216 | 9.0 | 11.0 | 0.00 | 0.00 | 0.00 | 38 | 1014.6 |
| 20260502180752 | 64 | 200 | 6.0 | 8.0 | 0.00 | 0.00 | 0.00 | 42 | 1014.4 |
| 20260502180250 | 63 | 223 | 6.0 | 11.0 | 0.00 | 0.00 | 0.00 | 40 | 1014.5 |
| 20260502170213 | 62 | 197 | 6.0 | 11.0 | 0.00 | 0.00 | 0.00 | 42 | 1015.6 |
| 20260502164200 | 61 | 195 | 5.0 | 7.0 | 0.00 | 0.00 | 0.00 | 45 | 1015.7 |
| 20260502163655 | 60 | 253 | 6.0 | 10.0 | 0.00 | 0.00 | 0.00 | 43 | 1015.7 |
| 20260502163153 | 59 | 233 | 4.0 | 6.0 | 0.00 | 0.00 | 0.00 | 45 | 1016.0 |
| 20260502162649 | 59 | 219 | 7.0 | 11.0 | 0.00 | 0.00 | 0.00 | 45 | 1015.8 |
| 20260502162147 | 59 | 194 | 4.0 | 9.0 | 0.00 | 0.00 | 0.00 | 48 | 1015.9 |
| 20260502161644 | 59 | 221 | 7.0 | 10.0 | 0.00 | 0.00 | 0.00 | 46 | 1016.1 |
| 20260502161140 | 58 | 227 | 7.0 | 9.0 | 0.00 | 0.00 | 0.00 | 46 | 1016.1 |
| 20260502160638 | 57 | 216 | 5.0 | 8.0 | 0.00 | 0.00 | 0.00 | 47 | 1016.3 |
| 20260502160137 | 57 | 171 | 2.0 | 8.0 | 0.00 | 0.00 | 0.00 | 47 | 1016.2 |
| 20260502152051 | 53 | 279 | 1.0 | 6.0 | 0.00 | 0.00 | 0.00 | 54 | 1016.7 |
| 20260502151548 | 53 | 261 | 6.0 | 9.0 | 0.00 | 0.00 | 0.00 | 52 | 1016.9 |
| 20260502151045 | 52 | 247 | 5.0 | 8.0 | 0.00 | 0.00 | 0.00 | 54 | 1016.9 |
| 20260502150543 | 52 | 211 | 2.0 | 7.0 | 0.00 | 0.00 | 0.00 | 54 | 1016.9 |
| 20260502130422 | 44 | 231 | 2.0 | 7.0 | 0.00 | 0.00 | 0.00 | 66 | 1018.6 |
| 20260502123405 | 43 | 231 | 3.0 | 6.0 | 0.00 | 0.00 | 0.00 | 69 | 1018.7 |
| 20260502122902 | 43 | 244 | 3.0 | 6.0 | 0.00 | 0.00 | 0.00 | 69 | 1018.6 |
| 20260502122358 | 43 | 214 | 2.0 | 4.0 | 0.00 | 0.00 | 0.00 | 71 | 1018.6 |
| 20260502121856 | 43 | 178 | 1.0 | 6.0 | 0.00 | 0.00 | 0.00 | 71 | 1018.6 |
| 20260502121353 | 43 | 221 | 1.0 | 3.0 | 0.00 | 0.00 | 0.00 | 70 | 1018.4 |
| 20260502120851 | 42 | 217 | 1.0 | 4.0 | 0.00 | 0.00 | 0.00 | 68 | 1018.7 |
| 20260502120347 | 42 | 232 | 4.0 | 6.0 | 0.00 | 0.00 | 0.00 | 70 | 1018.7 |
| 20260502115844 | 42 | 205 | 0.0 | 1.0 | 0.00 | 0.00 | 0.00 | 71 | 1018.7 |
| 20260502115341 | 42 | 134 | 1.0 | 2.0 | 0.00 | 0.00 | 0.00 | 72 | 1018.8 |
| 20260502114838 | 41 | 166 | 1.0 | 1.0 | 0.00 | 0.00 | 0.00 | 73 | 1018.7 |
| 20260502114335 | 41 | 239 | 2.0 | 3.0 | 0.00 | 0.00 | 0.00 | 71 | 1018.6 |
| 20260502113832 | 40 | 234 | 3.0 | 3.0 | 0.00 | 0.00 | 0.00 | 72 | 1018.8 |
| 20260502113329 | 39 | 209 | 0.0 | 0.0 | 0.00 | 0.00 | 0.00 | 73 | 1018.7 |
| 20260502112828 | 39 | 186 | 0.0 | 1.0 | 0.00 | 0.00 | 0.00 | 74 | 1018.6 |
| 20260502112324 | 39 | 177 | 0.0 | 1.0 | 0.00 | 0.00 | 0.00 | 74 | 1018.7 |
| 20260502111822 | 38 | 178 | 0.0 | 0.0 | 0.00 | 0.00 | 0.00 | 77 | 1018.7 |
| 20260502111319 | 38 | 193 | 0.0 | 0.0 | 0.00 | 0.00 | 0.00 | 77 | 1018.9 |
| 20260502110817 | 38 | 229 | 0.0 | 0.0 | 0.00 | 0.00 | 0.00 | 77 | 1019.0 |
| 20260502110315 | 38 | 216 | 0.0 | 1.0 | 0.00 | 0.00 | 0.00 | 77 | 1018.8 |
| 20260502105812 | 37 | 222 | 1.0 | 1.0 | 0.00 | 0.00 | 0.00 | 79 | 1018.8 |
| 20260502105308 | 37 | 206 | 0.0 | 0.0 | 0.00 | 0.00 | 0.00 | 79 | 1018.7 |
| 20260502104806 | 37 | 183 | 0.0 | 0.0 | 0.00 | 0.00 | 0.00 | 80 | 1018.9 |
| 20260502104303 | 37 | 235 | 0.0 | 1.0 | 0.00 | 0.00 | 0.00 | 80 | 1019.2 |
| 20260502103800 | 36 | 184 | 0.0 | 1.0 | 0.00 | 0.00 | 0.00 | 81 | 1019.0 |
| 20260502103257 | 36 | 193 | 0.0 | 0.0 | 0.00 | 0.00 | 0.00 | 81 | 1019.1 |
| 20260502102754 | 36 | 244 | 0.0 | 1.0 | 0.00 | 0.00 | 0.00 | 82 | 1019.0 |
| 20260502102251 | 35 | 240 | 0.0 | 1.0 | 0.00 | 0.00 | 0.00 | 84 | 1019.1 |
| 20260502101749 | 35 | 226 | 0.0 | 0.0 | 0.00 | 0.00 | 0.00 | 85 | 1019.2 |
| 20260502101247 | 34 | 194 | 0.0 | 0.0 | 0.00 | 0.00 | 0.00 | 85 | 1019.2 |
| 20260502100745 | 34 | 186 | 0.0 | 0.0 | 0.00 | 0.00 | 0.00 | 86 | 1019.3 |
| 20260502100243 | 34 | 198 | 0.0 | 0.0 | 0.00 | 0.00 | 0.00 | 86 | 1019.4 |
| 20260502091218 | 34 | 222 | 0.0 | 0.0 | 0.00 | 0.00 | 0.00 | 90 | 1019.4 |
| 20260502090715 | 34 | 184 | 0.0 | 0.0 | 0.00 | 0.00 | 0.00 | 91 | 1019.2 |
| 20260502090212 | 34 | 208 | 0.0 | 0.0 | 0.00 | 0.00 | 0.00 | 92 | 1019.3 |
| 20260502071107 | 35 | 223 | 0.0 | 0.0 | 0.00 | 0.00 | 0.00 | 96 | 1019.9 |
| 20260502070606 | 35 | 205 | 0.0 | 0.0 | 0.00 | 0.00 | 0.00 | 96 | 1019.9 |
| 20260502065601 | 35 | 200 | 0.0 | 0.0 | 0.00 | 0.00 | 0.00 | 97 | 1019.7 |
| 20260502065058 | 35 | 208 | 0.0 | 0.0 | 0.00 | 0.00 | 0.00 | 96 | 1019.9 |
| 20260502064551 | 35 | 208 | 0.0 | 0.0 | 0.00 | 0.00 | 0.00 | 96 | 1020.0 |
| 20260502064048 | 36 | 218 | 0.0 | 0.0 | 0.00 | 0.00 | 0.00 | 96 | 1020.0 |
| 20260502063545 | 35 | 202 | 0.0 | 0.0 | 0.00 | 0.00 | 0.00 | 96 | 1020.0 |
| 20260502063043 | 35 | 198 | 0.0 | 0.0 | 0.00 | 0.00 | 0.00 | 96 | 1020.0 |
| 20260502062540 | 34 | 194 | 0.0 | 0.0 | 0.00 | 0.00 | 0.00 | 94 | 1020.0 |
| 20260502062038 | 33 | 226 | 0.0 | 1.0 | 0.00 | 0.00 | 0.00 | 94 | 1020.0 |
| 20260502061536 | 33 | 197 | 0.0 | 0.0 | 0.00 | 0.00 | 0.00 | 92 | 1019.9 |
| 20260502061033 | 33 | 175 | 0.0 | 0.0 | 0.00 | 0.00 | 0.00 | 89 | 1020.1 |
| 20260502060528 | 33 | 174 | 0.0 | 0.0 | 0.00 | 0.00 | 0.00 | 88 | 1020.0 |
| 20260502060025 | 34 | 174 | 0.0 | 0.0 | 0.00 | 0.00 | 0.00 | 89 | 1019.9 |
| 20260502055522 | 34 | 174 | 0.0 | 0.0 | 0.00 | 0.00 | 0.00 | 91 | 1020.0 |
| 20260502055021 | 34 | 190 | 0.0 | 0.0 | 0.00 | 0.00 | 0.00 | 93 | 1020.0 |
| 20260502054520 | 34 | 191 | 0.0 | 0.0 | 0.00 | 0.00 | 0.00 | 93 | 1020.1 |
| 20260502054016 | 34 | 191 | 0.0 | 0.0 | 0.00 | 0.00 | 0.00 | 92 | 1020.3 |
| 20260502053513 | 34 | 191 | 0.0 | 0.0 | 0.00 | 0.00 | 0.00 | 89 | 1020.1 |
| 20260502053011 | 35 | 191 | 0.0 | 0.0 | 0.00 | 0.00 | 0.00 | 88 | 1019.9 |
| 20260502052509 | 35 | 191 | 0.0 | 0.0 | 0.00 | 0.00 | 0.00 | 87 | 1020.1 |
| 20260502052007 | 35 | 191 | 0.0 | 0.0 | 0.00 | 0.00 | 0.00 | 89 | 1020.2 |
| 20260502051505 | 36 | 194 | 0.0 | 0.0 | 0.00 | 0.00 | 0.00 | 87 | 1020.0 |
| 20260502051002 | 36 | 194 | 0.0 | 0.0 | 0.00 | 0.00 | 0.00 | 87 | 1020.1 |
| 20260502050458 | 36 | 192 | 0.0 | 0.0 | 0.00 | 0.00 | 0.00 | 86 | 1020.2 |
| 20260502045955 | 35 | 194 | 0.0 | 0.0 | 0.00 | 0.00 | 0.00 | 86 | 1020.2 |
| 20260502045452 | 35 | 199 | 0.0 | 0.0 | 0.00 | 0.00 | 0.00 | 88 | 1020.3 |
| 20260502044949 | 35 | 199 | 0.0 | 0.0 | 0.00 | 0.00 | 0.00 | 89 | 1020.3 |
| 20260502044444 | 35 | 204 | 0.0 | 0.0 | 0.00 | 0.00 | 0.00 | 88 | 1020.3 |
| 20260502043942 | 35 | 204 | 0.0 | 0.0 | 0.00 | 0.00 | 0.00 | 87 | 1020.4 |
| 20260502043440 | 35 | 200 | 0.0 | 0.0 | 0.00 | 0.00 | 0.00 | 86 | 1020.3 |
| 20260502042939 | 35 | 199 | 0.0 | 0.0 | 0.00 | 0.00 | 0.00 | 85 | 1020.3 |
| 20260502042436 | 35 | 199 | 0.0 | 0.0 | 0.00 | 0.00 | 0.00 | 83 | 1020.3 |
| 20260502041933 | 36 | 200 | 0.0 | 0.0 | 0.00 | 0.00 | 0.00 | 81 | 1020.3 |
| 20260502041431 | 37 | 200 | 0.0 | 0.0 | 0.00 | 0.00 | 0.00 | 80 | 1020.2 |
| 20260502040928 | 37 | 201 | 0.0 | 0.0 | 0.00 | 0.00 | 0.00 | 79 | 1020.5 |
| 20260502040424 | 37 | 192 | 0.0 | 0.0 | 0.00 | 0.00 | 0.00 | 79 | 1020.4 |
| 20260502035921 | 38 | 192 | 0.0 | 0.0 | 0.00 | 0.00 | 0.00 | 78 | 1020.4 |
| 20260502035417 | 38 | 192 | 0.0 | 0.0 | 0.00 | 0.00 | 0.00 | 73 | 1020.4 |
| 20260502034915 | 38 | 196 | 0.0 | 0.0 | 0.00 | 0.00 | 0.00 | 71 | 1020.6 |
| 20260502034414 | 38 | 200 | 0.0 | 0.0 | 0.00 | 0.00 | 0.00 | 67 | 1020.5 |
| 20260502033911 | 38 | 197 | 0.0 | 0.0 | 0.00 | 0.00 | 0.00 | 65 | 1020.6 |
| 20260502033409 | 39 | 197 | 0.0 | 0.0 | 0.00 | 0.00 | 0.00 | 63 | 1020.5 |
| 20260502032905 | 39 | 188 | 0.0 | 0.0 | 0.00 | 0.00 | 0.00 | 62 | 1020.5 |
| 20260502032402 | 39 | 196 | 0.0 | 0.0 | 0.00 | 0.00 | 0.00 | 63 | 1020.5 |
| 20260502031859 | 40 | 186 | 0.0 | 0.0 | 0.00 | 0.00 | 0.00 | 62 | 1020.6 |
| 20260502031357 | 39 | 192 | 0.0 | 0.0 | 0.00 | 0.00 | 0.00 | 62 | 1020.7 |
| 20260502030855 | 39 | 192 | 0.0 | 0.0 | 0.00 | 0.00 | 0.00 | 61 | 1020.4 |
| 20260502030353 | 40 | 192 | 0.0 | 0.0 | 0.00 | 0.00 | 0.00 | 59 | 1020.5 |
| 20260502025850 | 41 | 192 | 0.0 | 0.0 | 0.00 | 0.00 | 0.00 | 58 | 1020.3 |
| 20260502025348 | 41 | 192 | 0.0 | 0.0 | 0.00 | 0.00 | 0.00 | 57 | 1020.3 |
| 20260502024845 | 42 | 192 | 0.0 | 0.0 | 0.00 | 0.00 | 0.00 | 56 | 1020.2 |
| 20260502024343 | 41 | 192 | 0.0 | 0.0 | 0.00 | 0.00 | 0.00 | 57 | 1020.3 |
| 20260502023841 | 41 | 192 | 0.0 | 0.0 | 0.00 | 0.00 | 0.00 | 57 | 1020.2 |
| 20260502023338 | 42 | 191 | 0.0 | 0.0 | 0.00 | 0.00 | 0.00 | 58 | 1020.2 |
| 20260502022836 | 42 | 193 | 0.0 | 0.0 | 0.00 | 0.00 | 0.00 | 56 | 1020.2 |
| 20260502022332 | 42 | 195 | 0.0 | 0.0 | 0.00 | 0.00 | 0.00 | 55 | 1020.3 |
| 20260502021829 | 43 | 199 | 0.0 | 0.0 | 0.00 | 0.00 | 0.00 | 54 | 1020.3 |
| 20260502021326 | 44 | 208 | 0.0 | 0.0 | 0.00 | 0.00 | 0.00 | 53 | 1020.4 |
| 20260502020824 | 44 | 191 | 0.0 | 0.0 | 0.00 | 0.00 | 0.00 | 52 | 1020.4 |
| 20260502020321 | 45 | 203 | 0.0 | 0.0 | 0.00 | 0.00 | 0.00 | 51 | 1020.2 |
| 20260502015818 | 46 | 224 | 0.0 | 0.0 | 0.00 | 0.00 | 0.00 | 49 | 1020.3 |
| 20260502015315 | 47 | 259 | 0.0 | 1.0 | 0.00 | 0.00 | 0.00 | 47 | 1020.1 |
| 20260502014812 | 47 | 307 | 1.0 | 1.0 | 0.00 | 0.00 | 0.00 | 47 | 1020.1 |
| 20260502014309 | 48 | 333 | 1.0 | 2.0 | 0.00 | 0.00 | 0.00 | 46 | 1020.1 |
| 20260502013805 | 48 | 260 | 0.0 | 2.0 | 0.00 | 0.00 | 0.00 | 44 | 1020.0 |
| 20260502013301 | 48 | 328 | 2.0 | 3.0 | 0.00 | 0.00 | 0.00 | 44 | 1020.0 |
| 20260502012757 | 48 | 338 | 2.0 | 3.0 | 0.00 | 0.00 | 0.00 | 45 | 1020.2 |
| 20260502012255 | 49 | 281 | 1.0 | 3.0 | 0.00 | 0.00 | 0.00 | 43 | 1019.9 |
| 20260502011753 | 49 | 317 | 2.0 | 4.0 | 0.00 | 0.00 | 0.00 | 43 | 1020.0 |
| 20260502011248 | 49 | 322 | 1.0 | 3.0 | 0.00 | 0.00 | 0.00 | 43 | 1019.9 |
| 20260502010746 | 50 | 323 | 2.0 | 6.0 | 0.00 | 0.00 | 0.00 | 41 | 1019.9 |
| 20260502010242 | 50 | 338 | 3.0 | 4.0 | 0.00 | 0.00 | 0.00 | 40 | 1020.0 |
| 20260502005739 | 50 | 347 | 4.0 | 6.0 | 0.00 | 0.00 | 0.00 | 39 | 1019.9 |
| 20260502005237 | 51 | 307 | 3.0 | 3.0 | 0.00 | 0.00 | 0.00 | 39 | 1019.9 |
| 20260502004734 | 51 | 287 | 2.0 | 7.0 | 0.00 | 0.00 | 0.00 | 38 | 1019.9 |
| 20260502004230 | 51 | 289 | 3.0 | 3.0 | 0.00 | 0.00 | 0.00 | 38 | 1019.9 |
| 20260502003728 | 51 | 303 | 3.0 | 7.0 | 0.00 | 0.00 | 0.00 | 38 | 1019.9 |
| 20260502003225 | 51 | 287 | 3.0 | 4.0 | 0.00 | 0.00 | 0.00 | 38 | 1019.9 |
| 20260502002720 | 52 | 330 | 2.0 | 6.0 | 0.00 | 0.00 | 0.00 | 39 | 1019.9 |
| 20260502002219 | 51 | 272 | 2.0 | 3.0 | 0.00 | 0.00 | 0.00 | 37 | 1019.9 |
| 20260502001715 | 52 | 304 | 4.0 | 6.0 | 0.00 | 0.00 | 0.00 | 37 | 1019.6 |
| 20260502001214 | 52 | 267 | 2.0 | 2.0 | 0.00 | 0.00 | 0.00 | 38 | 1019.6 |
| 20260502000711 | 52 | 320 | 2.0 | 4.0 | 0.00 | 0.00 | 0.00 | 35 | 1020.0 |
| 20260502000211 | 52 | 16 | 4.0 | 8.0 | 0.00 | 0.00 | 0.00 | 37 | 1019.6 |
| 20260501235704 | 52 | 258 | 1.0 | 7.0 | 0.00 | 0.00 | 0.00 | 36 | 1019.5 |
| 20260501235200 | 52 | 22 | 3.0 | 6.0 | 0.00 | 0.00 | 0.00 | 35 | 1019.6 |
| 20260501234656 | 52 | 5 | 3.0 | 6.0 | 0.00 | 0.00 | 0.00 | 36 | 1019.7 |
| 20260501234153 | 52 | 356 | 3.0 | 7.0 | 0.00 | 0.00 | 0.00 | 36 | 1019.6 |
| 20260501233651 | 52 | 19 | 4.0 | 4.0 | 0.00 | 0.00 | 0.00 | 37 | 1019.7 |
| 20260501233148 | 53 | 334 | 3.0 | 9.0 | 0.00 | 0.00 | 0.00 | 37 | 1019.9 |
| 20260501232644 | 53 | 285 | 1.0 | 2.0 | 0.00 | 0.00 | 0.00 | 35 | 1019.7 |
| 20260501232142 | 52 | 174 | 0.0 | 8.0 | 0.00 | 0.00 | 0.00 | 34 | 1019.6 |
| 20260501231639 | 53 | 33 | 3.0 | 7.0 | 0.00 | 0.00 | 0.00 | 36 | 1019.5 |
| 20260501231137 | 53 | 234 | 5.0 | 7.0 | 0.00 | 0.00 | 0.00 | 37 | 1019.7 |
| 20260501230636 | 53 | 335 | 1.0 | 4.0 | 0.00 | 0.00 | 0.00 | 38 | 1019.6 |
| 20260501230133 | 54 | 290 | 4.0 | 7.0 | 0.00 | 0.00 | 0.00 | 36 | 1019.4 |
| 20260501225631 | 53 | 3 | 1.0 | 7.0 | 0.00 | 0.00 | 0.00 | 39 | 1019.7 |
| 20260501225127 | 53 | 320 | 3.0 | 8.0 | 0.00 | 0.00 | 0.00 | 35 | 1019.7 |
| 20260501224624 | 53 | 342 | 4.0 | 8.0 | 0.00 | 0.00 | 0.00 | 39 | 1019.6 |
| 20260501224121 | 52 | 323 | 2.0 | 8.0 | 0.00 | 0.00 | 0.00 | 35 | 1019.6 |
| 20260501223617 | 53 | 289 | 5.0 | 9.0 | 0.00 | 0.00 | 0.00 | 36 | 1019.9 |
| 20260501223114 | 53 | 351 | 4.0 | 9.0 | 0.00 | 0.00 | 0.00 | 36 | 1020.0 |
| 20260501222610 | 53 | 334 | 3.0 | 6.0 | 0.00 | 0.00 | 0.00 | 37 | 1019.7 |
| 20260501222107 | 55 | 21 | 2.0 | 9.0 | 0.00 | 0.00 | 0.00 | 41 | 1019.9 |
| 20260501221604 | 53 | 315 | 4.0 | 8.0 | 0.00 | 0.00 | 0.00 | 37 | 1019.6 |
| 20260501221102 | 54 | 342 | 2.0 | 7.0 | 0.00 | 0.00 | 0.00 | 41 | 1019.9 |
| 20260501220559 | 53 | 271 | 6.0 | 8.0 | 0.00 | 0.00 | 0.00 | 37 | 1019.6 |
| 20260501220055 | 53 | 351 | 4.0 | 8.0 | 0.00 | 0.00 | 0.00 | 37 | 1019.9 |
| 20260501215552 | 54 | 9 | 3.0 | 7.0 | 0.00 | 0.00 | 0.00 | 37 | 1020.0 |
| 20260501215047 | 54 | 321 | 5.0 | 7.0 | 0.00 | 0.00 | 0.00 | 37 | 1019.9 |
| 20260501214543 | 54 | 279 | 2.0 | 4.0 | 0.00 | 0.00 | 0.00 | 44 | 1019.7 |
| 20260501214039 | 53 | 208 | 3.0 | 4.0 | 0.00 | 0.00 | 0.00 | 37 | 1019.9 |
| 20260501213536 | 52 | 272 | 1.0 | 2.0 | 0.00 | 0.00 | 0.00 | 41 | 1019.9 |
| 20260501213032 | 50 | 229 | 1.0 | 6.0 | 0.00 | 0.00 | 0.00 | 40 | 1020.2 |
| 20260501212528 | 51 | 342 | 4.0 | 7.0 | 0.00 | 0.00 | 0.00 | 40 | 1020.0 |
| 20260501212026 | 53 | 342 | 6.0 | 8.0 | 0.00 | 0.00 | 0.00 | 38 | 1020.0 |
| 20260501211522 | 52 | 29 | 1.0 | 3.0 | 0.00 | 0.00 | 0.00 | 39 | 1020.0 |
| 20260501211020 | 52 | 47 | 4.0 | 4.0 | 0.00 | 0.00 | 0.00 | 40 | 1020.1 |
| 20260501210516 | 51 | 29 | 2.0 | 4.0 | 0.00 | 0.00 | 0.00 | 39 | 1020.1 |
| 20260501210013 | 50 | 128 | 2.0 | 3.0 | 0.00 | 0.00 | 0.00 | 39 | 1020.2 |
| 20260501205510 | 51 | 104 | 1.0 | 2.0 | 0.00 | 0.00 | 0.00 | 37 | 1020.4 |
| 20260501205008 | 52 | 336 | 1.0 | 2.0 | 0.00 | 0.00 | 0.00 | 37 | 1020.3 |
| 20260501204503 | 53 | 288 | 6.0 | 10.0 | 0.00 | 0.00 | 0.00 | 40 | 1020.4 |
| 20260501203959 | 52 | 0 | 3.0 | 7.0 | 0.00 | 0.00 | 0.00 | 36 | 1020.4 |
| 20260501203456 | 52 | 256 | 2.0 | 8.0 | 0.00 | 0.00 | 0.00 | 37 | 1020.4 |